EHI
0 0 0 0 0 0 0 0 0 0 1 2 4 6 11 18 22 23 23 25 28 30 29 29 32 30 27 25 22 21 24 26 22 19 15 12 12 12 11 9 9 9 10 11
0 0 0 0 0 0 0 1 1 0 1 2 4 7 13 19 22 23 22 23 25 26 26 27 30 30 29 28 25 23 25 26 24 22 19 15 14 13 12 11 10 9 10 12
0 0 0 0 0 0 2 4 4 3 4 5 6 7 13 19 22 21 19 19 21 22 22 23 25 27 28 28 27 25 25 25 25 26 24 22 20 18 15 13 12 11 12 14
0 0 0 0 0 2 5 8 9 9 9 9 8 9 11 16 19 18 16 16 18 20 20 20 21 23 26 27 25 24 23 22 24 27 28 27 26 23 18 15 15 15 15 16
0 0 0 0 1 3 7 11 12 12 11 10 10 10 11 12 14 15 14 16 18 19 19 20 20 21 25 26 24 23 21 20 21 25 27 28 27 24 21 18 16 17 16 14
0 0 0 1 2 4 8 9 9 9 8 7 8 9 9 11 13 15 16 18 19 19 19 18 17 20 24 26 25 23 21 20 21 22 25 26 24 21 21 19 17 16 13 11
0 0 1 2 3 4 5 5 6 6 6 6 7 8 10 12 14 15 15 16 18 19 18 15 13 17 22 25 25 24 24 23 23 23 24 24 23 21 21 19 17 15 13 11
0 0 1 2 3 4 4 5 5 5 6 8 9 10 12 12 11 11 11 11 13 16 16 14 13 15 20 23 24 26 28 27 26 25 24 22 22 23 23 21 18 16 15 14
1 1 1 3 3 4 5 7 8 9 10 10 10 10 9 7 6 7 8 8 10 14 16 15 15 16 18 20 23 28 30 29 26 25 23 22 21 23 24 23 20 18 17 17
2 3 3 4 5 6 8 10 12 13 12 10 8 7 4 3 2 5 8 9 12 16 17 16 15 15 16 18 22 27 30 27 25 23 21 20 20 21 23 23 21 19 18 17
2 3 4 5 7 9 11 13 14 13 11 8 7 5 4 3 3 5 9 12 15 18 16 14 13 12 14 16 20 23 25 25 23 22 21 19 19 19 18 17 17 16 15 16
1 2 4 5 8 10 12 14 13 11 8 7 6 6 6 6 7 9 11 13 16 16 14 11 10 9 10 14 16 17 18 19 20 21 21 19 17 16 13 10 8 8 8 10
2 3 5 7 8 10 11 12 11 9 8 7 7 7 8 10 11 12 12 12 13 13 11 9 8 6 7 10 13 13 12 14 17 18 18 17 15 14 11 7 3 1 2 3
5 6 8 9 10 10 10 10 9 9 9 8 9 9 9 11 12 11 10 10 11 11 9 7 6 5 6 9 12 12 11 12 15 16 15 14 14 13 12 9 4 1 0 1
9 9 10 11 10 9 9 9 8 8 9 9 9 8 8 8 8 7 6 7 9 10 8 6 4 5 7 11 13 12 11 12 13 15 15 13 13 13 13 12 8 3 1 0
9 9 9 10 9 8 8 8 7 6 7 8 7 6 4 4 3 2 2 3 5 6 6 5 4 5 8 11 11 11 11 11 12 14 14 13 13 13 13 12 8 4 1 0
6 5 6 6 6 7 8 7 6 5 5 5 4 2 1 1 0 0 0 0 1 2 2 3 3 4 6 8 9 9 9 9 11 12 12 12 13 13 13 11 7 4 2 1
2 3 4 5 6 7 8 7 5 4 4 4 2 1 1 1 0 0 0 0 0 0 0 1 2 3 4 6 7 7 8 9 10 10 10 11 11 12 11 10 7 5 2 0
2 3 5 7 7 7 7 5 4 3 3 3 3 2 2 2 1 1 1 1 1 0 0 0 2 2 2 3 4 5 7 8 9 9 8 8 9 9 10 9 7 4 1 0
4 5 7 8 7 6 5 3 2 2 2 2 2 2 2 2 2 2 2 2 1 0 0 0 1 1 1 1 1 3 5 7 7 7 7 7 7 8 9 8 6 4 1 0
4 5 6 5 4 3 2 1 1 1 1 1 1 1 1 1 2 1 1 1 1 0 0 0 0 0 0 0 0 1 4 6 6 6 6 6 6 7 8 8 6 3 1 0
2 3 3 3 2 1 0 0 0 0 0 0 0 0 0 0 0 0 0 0 0 0 0 0 0 0 0 0 1 2 3 4 5 6 6 6 6 7 8 7 6 4 2 1
1 2 2 1 1 0 0 0 0 0 0 0 0 0 0 0 0 0 0 0 0 0 0 0 0 0 0 1 2 3 3 3 4 5 6 6 6 7 7 6 5 4 2 1
2 3 3 1 1 0 0 0 0 0 0 0 0 0 0 0 0 0 0 0 0 0 0 0 0 0 1 2 3 3 3 3 3 4 6 6 6 6 6 5 4 3 3 2
2 3 3 3 2 1 0 0 0 0 0 0 0 0 0 0 0 0 0 0 0 0 0 0 0 1 2 3 3 3 3 3 3 3 4 5 4 4 4 4 3 3 3 3
3 3 3 3 2 1 0 0 0 0 0 0 0 0 0 0 0 0 0 0 0 0 0 0 0 1 2 2 2 2 2 2 1 1 1 2 2 2 3 3 3 3 3 3
3 3 3 3 1 0 0 0 0 0 0 0 0 0 0 0 0 0 0 0 0 0 0 0 0 1 1 1 1 1 1 1 0 0 0 0 1 2 3 3 3 3 3 2
Wind_Speed
4 4 2 2 3 2 4 7 8 8 8 9 8 7 6 6 7 8 8 7 8 7 6 6 7 7 7 7 6 6 6 6 6 5 5 4 4 4 4 4 5 4 4 3
3 3 2 3 3 2 2 4 6 6 5 6 6 6 6 6 8 8 8 8 7 6 6 6 7 7 7 6 6 6 6 6 6 5 5 4 4 4 4 4 4 4 4 4
2 5 3 4 4 2 2 2 6 6 6 5 5 7 8 8 9 8 7 6 7 7 7 6 7 7 7 7 6 6 6 5 5 5 5 5 5 4 5 4 4 4 5 4
1 4 2 8 3 6 7 3 3 5 5 8 7 6 6 7 9 8 6 6 5 5 5 5 5 5 6 6 6 5 5 4 4 4 5 5 4 5 5 4 4 4 5 5
3 1 4 6 4 1 5 2 1 6 6 8 7 7 3 2 7 8 6 5 4 4 4 4 4 5 5 5 5 5 5 5 5 5 4 4 4 5 4 4 4 4 4 5
4 3 5 6 5 0 7 1 2 4 6 6 6 4 2 2 4 5 5 5 4 3 3 4 3 4 5 5 5 5 6 6 5 5 5 5 5 4 3 4 5 4 4 4
4 4 6 5 5 3 4 6 2 4 6 5 5 5 4 4 5 5 5 5 4 4 3 3 4 5 5 5 6 6 5 4 4 4 4 5 4 3 3 3 3 3 4 4
5 4 8 4 2 4 5 3 3 4 5 6 5 5 4 4 5 5 5 4 4 4 2 2 4 5 4 4 4 3 3 3 3 3 4 3 3 3 3 3 3 3 2 3
7 7 6 2 4 4 5 5 3 5 5 7 6 5 4 3 3 3 4 3 2 3 3 1 2 4 5 4 3 3 3 3 3 3 3 3 4 4 3 3 3 3 3 3
2 1 1 1 3 4 5 5 5 6 7 7 6 5 4 4 3 2 1 2 2 3 2 1 2 3 4 3 3 4 4 3 3 3 3 3 3 3 4 4 5 4 5 5
1 1 2 2 1 2 4 5 6 5 5 6 6 5 4 3 3 2 2 1 2 3 2 2 2 2 2 2 3 4 4 3 3 3 4 3 3 4 5 5 6 7 6 5
5 6 5 5 4 3 5 5 5 5 4 4 5 5 3 2 2 2 2 1 1 1 2 2 1 2 2 2 3 4 3 3 3 3 3 3 3 3 4 4 5 7 7 7
5 3 4 5 4 4 5 4 4 5 5 4 3 4 3 2 1 1 2 2 2 1 2 2 2 2 3 2 3 4 4 4 3 3 3 3 3 3 3 3 3 5 7 8
3 2 1 2 3 3 4 4 4 3 3 4 4 4 3 2 1 1 1 1 1 1 1 1 1 2 3 2 3 3 3 4 3 3 3 3 3 3 3 3 3 3 3 6
1 3 4 3 2 2 3 4 4 3 2 2 3 3 3 2 2 2 1 1 1 1 1 1 1 3 2 2 2 3 3 2 3 3 3 3 3 3 3 3 3 2 1 1
1 1 2 3 4 4 4 4 3 3 3 3 3 3 3 3 2 1 1 1 1 1 2 2 2 3 2 2 2 2 3 5 4 2 2 2 3 3 3 3 3 3 3 3
2 1 1 3 4 3 4 4 5 4 4 4 4 4 3 2 1 1 2 2 2 3 3 3 3 3 2 2 2 2 2 3 4 2 2 3 3 3 4 3 3 3 4 4
4 4 4 5 5 5 3 3 3 4 4 4 4 3 3 2 3 3 3 2 1 2 3 3 3 2 2 2 2 2 2 2 2 2 2 2 3 3 3 3 4 4 3 3
2 2 3 4 4 4 3 3 4 4 4 4 4 4 3 3 3 3 2 2 2 3 4 3 3 3 3 3 2 2 2 2 2 2 2 2 3 3 3 3 3 3 3 3
2 2 3 3 3 4 4 4 4 4 4 4 4 3 2 2 2 1 1 2 4 4 3 2 3 3 3 3 2 1 2 2 2 2 2 2 2 2 2 2 3 3 3 3
0 1 3 3 2 3 3 4 4 4 3 3 4 4 3 2 2 2 1 3 5 4 3 4 3 3 3 2 2 2 2 2 2 2 2 2 2 2 1 2 2 2 2 2
0 1 2 2 3 2 2 3 4 4 3 2 2 3 2 2 1 1 3 3 4 4 3 2 3 3 4 3 2 2 2 2 2 2 2 2 2 1 1 1 1 2 1 1
1 1 2 2 2 2 1 2 3 3 3 3 3 3 3 3 2 2 3 4 2 3 2 3 4 5 4 3 2 2 1 1 1 2 2 2 2 2 2 1 1 1 1 1
1 1 1 2 3 3 2 1 1 1 2 2 2 3 3 2 1 2 3 3 2 2 2 3 4 4 3 1 1 1 1 1 2 2 2 2 2 2 2 2 2 1 1 1
1 1 1 2 2 1 2 1 1 1 1 0 0 1 2 2 2 2 2 1 1 1 1 2 3 2 1 1 1 1 1 1 2 2 1 1 1 1 1 1 1 1 1 1
1 1 1 1 2 2 2 1 1 1 1 0 1 1 1 0 0 0 0 1 1 0 1 1 1 1 1 1 1 1 1 1 1 1 1 1 1 1 1 1 1 1 1 1
1 1 1 1 1 1 1 1 1 1 1 1 0 1 0 1 1 1 1 0 1 0 0 1 1 1 0 0 0 0 0 0 1 1 1 1 1 1 1 2 1 1 1 1
Wind_Direction
220 235 231 247 259 228 162 171 171 196 187 207 194 178 166 152 142 134 132 137 148 155 159 159 158 161 164 165 167 168 168 172 185 188 190 188 187 187 187 190 194 195 192 195
332 318 340 302 280 244 183 158 151 153 206 212 175 145 131 137 138 136 142 147 148 150 154 160 163 165 164 167 171 169 169 180 185 183 185 188 192 191 189 197 197 193 198 200
302 324 13 288 252 168 132 153 150 172 203 163 143 149 156 152 143 144 146 148 154 159 165 172 176 171 170 173 169 169 176 182 183 184 187 196 198 194 198 202 199 200 206 202
89 38 247 256 272 128 110 75 115 140 148 150 154 149 147 147 143 144 145 145 155 163 163 169 171 167 162 155 156 164 172 182 187 187 195 197 198 206 207 202 201 205 208 207
116 154 275 296 316 108 117 44 40 121 126 136 123 85 58 129 142 149 153 152 155 158 153 155 160 161 151 154 160 166 179 185 188 189 190 194 207 217 216 206 209 211 206 201
130 159 222 249 286 277 98 53 305 125 131 142 121 120 215 173 131 126 123 126 126 124 128 139 162 152 151 166 170 187 197 199 194 190 193 202 213 217 214 206 212 207 206 203
158 198 251 258 288 48 122 207 223 138 136 135 146 172 181 150 132 125 117 114 118 117 132 173 171 148 162 182 195 204 200 193 194 198 204 211 210 212 209 203 201 207 210 216
155 185 243 275 54 131 188 183 133 121 123 121 122 116 119 122 124 121 112 107 114 121 132 163 159 152 170 205 213 193 179 187 200 208 216 217 206 217 214 198 198 213 218 233
180 206 231 217 147 156 140 125 122 122 120 119 119 123 125 125 120 115 123 131 134 143 149 163 167 163 183 216 202 172 170 194 214 221 221 211 206 215 214 202 199 210 209 219
113 257 259 85 99 105 117 124 126 124 123 122 125 134 129 127 126 118 124 156 146 135 149 195 206 196 205 211 187 172 182 205 216 219 232 232 219 212 211 210 208 207 211 216
148 209 54 8 115 120 103 100 101 109 117 130 136 137 138 144 157 164 162 174 162 159 179 222 233 234 220 202 182 187 195 207 220 225 228 232 231 227 226 226 216 209 213 208
214 214 182 213 218 147 122 126 125 118 106 113 132 145 142 147 162 155 149 131 122 173 186 220 220 236 240 211 186 186 199 212 221 228 229 229 234 269 268 253 248 236 227 213
200 210 195 202 187 151 139 146 146 145 141 133 133 137 137 141 152 139 136 132 162 203 220 226 217 229 238 218 192 192 204 216 227 227 224 225 224 227 262 293 271 247 238 226
179 132 108 195 183 160 149 155 147 143 144 144 147 138 135 138 148 148 183 209 192 209 238 238 232 244 238 205 194 206 217 225 230 229 226 225 225 227 228 231 255 276 267 239
228 165 174 178 151 130 129 128 123 135 138 136 140 140 146 157 187 218 225 231 144 132 254 236 231 260 254 197 198 212 223 232 229 227 225 224 225 227 232 231 237 242 263 276
182 130 145 155 160 152 137 139 148 169 162 158 154 160 169 178 192 217 213 184 167 211 237 239 248 264 260 221 220 224 226 236 234 224 224 226 225 225 231 230 226 217 221 219
130 196 206 174 165 171 172 171 175 183 171 165 172 171 159 144 152 246 251 244 215 220 227 219 240 260 254 234 228 233 233 239 239 230 227 231 231 229 225 220 221 217 222 214
194 207 209 195 178 178 182 174 173 172 173 174 169 163 165 176 209 233 239 241 248 281 273 257 252 267 266 245 229 226 224 231 227 228 227 232 238 230 220 219 218 214 222 217
208 212 205 193 176 164 175 178 171 168 165 160 161 173 188 204 219 226 216 208 231 258 272 273 269 269 269 260 253 232 225 225 225 230 228 236 241 237 224 214 216 221 210 204
215 212 194 179 169 158 161 169 164 156 156 149 147 151 176 221 217 204 205 233 243 243 251 254 249 253 260 265 266 247 234 228 226 232 237 241 244 241 228 214 211 216 220 215
251 181 148 142 152 151 150 149 146 149 157 150 154 170 191 215 193 185 202 254 266 251 247 247 244 246 248 249 249 241 241 241 238 239 243 245 244 236 225 220 218 223 223 219
258 147 135 128 125 134 156 147 145 147 149 154 164 171 171 195 205 230 239 238 255 250 241 245 244 235 236 240 230 233 238 238 242 242 239 240 228 219 224 224 230 242 236 216
139 129 131 127 131 132 106 126 144 155 164 176 185 187 193 206 201 199 253 260 250 247 253 256 244 228 229 225 229 236 240 238 237 233 231 233 229 220 215 223 231 228 222 227
109 135 146 128 110 98 86 108 151 161 175 197 202 193 185 198 253 248 237 251 244 248 269 275 266 243 219 214 225 230 237 245 242 234 224 223 227 223 217 220 231 226 214 219
133 102 104 108 111 144 168 149 92 79 97 49 251 200 189 184 200 238 236 233 225 235 277 283 271 262 238 253 245 231 233 244 244 237 230 229 227 224 226 221 226 224 223 225
141 154 167 171 184 181 166 143 160 217 154 68 332 297 287 268 176 174 186 198 180 210 278 289 286 271 230 234 239 243 246 260 259 257 255 239 213 202 213 221 220 212 217 223
64 81 72 44 45 88 110 122 141 177 166 152 183 315 9 45 62 68 78 103 107 71 312 282 275 275 274 300 268 241 225 281 285 284 272 247 226 213 215 210 214 220 216 199